Date,TemperatureHighF,TemperatureAvgF,TemperatureLowF,DewpointHighF,DewpointAvgF,DewpointLowF,HumidityHigh,HumidityAvg,HumidityLow,PressureMaxIn,PressureMinIn,WindSpeedMaxMPH,WindSpeedAvgMPH,GustSpeedMaxMPH,PrecipitationSumIn
2013-1-23,4,-1,-7,-11,-14,-15,68,52,41,30.21,29.98,8,3,22,0.00
2013-1-24,9,0,-8,-9,-12,-16,71,56,39,30.35,30.00,13,6,28,0.00
2013-1-25,14,6,-2,4,-7,-10,81,56,39,30.38,30.01,8,4,20,0.00
2013-1-26,15,8,3,5,-1,-9,87,67,35,30.32,29.97,8,4,23,0.00
2013-1-27,23,13,7,5,-2,-7,83,54,28,30.56,30.17,9,4,19,0.00
2013-1-28,21,14,7,18,8,-3,94,76,52,30.54,29.99,2,0,8,0.00
2013-1-29,31,25,18,30,23,17,99,93,85,30.25,30.01,1,0,7,0.00
2013-1-30,56,42,30,53,41,30,100,98,87,30.17,29.41,7,2,25,0.05
2013-1-31,56,33,24,52,22,9,95,64,50,29.53,29.02,14,8,37,1.17
2013-2-1,24,19,14,18,10,3,93,68,55,30.10,29.50,11,6,24,0.01
2013-2-2,21,15,8,14,7,1,86,70,55,30.27,29.98,6,2,13,0.00
2013-2-3,25,19,10,15,13,8,93,80,64,30.11,29.69,2,0,7,0.00
2013-2-4,23,17,13,13,7,0,86,65,43,29.93,29.67,10,5,29,0.00
2013-2-5,26,16,9,16,6,2,79,64,45,30.08,29.84,7,2,18,0.00
2013-2-6,29,22,14,22,14,-2,93,72,45,30.33,29.86,9,3,18,0.00
2013-2-7,21,14,6,5,-1,-4,66,52,42,30.60,30.26,5,2,12,0.00
2013-2-8,17,15,13,15,10,1,92,81,48,30.54,29.80,5,2,16,0.00
2013-2-9,17,12,9,16,8,0,94,86,65,30.34,29.75,10,5,24,0.00
2013-2-10,31,16,5,6,1,-2,73,53,31,30.55,30.22,6,2,14,0.00
2013-2-11,35,25,18,35,19,4,100,81,46,30.41,29.62,7,1,13,0.00
2013-2-12,37,34,31,34,29,27,97,81,70,29.89,29.60,12,5,33,0.08
2013-2-13,34,29,26,27,22,19,86,76,60,29.90,29.73,6,2,14,0.08
2013-2-14,38,30,25,23,21,20,82,72,52,29.99,29.71,4,1,12,0.00
2013-2-15,47,35,24,29,25,20,88,68,47,30.03,29.89,7,2,16,0.00
2013-2-16,33,28,19,27,20,5,95,74,52,30.01,29.78,7,2,13,0.00
2013-2-17,19,14,8,6,3,0,74,62,53,29.81,29.46,14,8,30,0.00
2013-2-18,24,15,7,1,-1,-4,71,51,30,30.21,29.65,13,8,31,0.00
2013-2-19,39,28,15,34,15,-2,98,61,39,30.23,29.57,6,1,14,0.10
2013-2-20,34,26,19,34,20,14,99,80,65,29.79,29.54,10,6,24,0.13
2013-2-21,23,19,14,17,12,7,90,76,61,30.29,29.70,10,6,20,0.00
2013-2-22,37,27,20,22,19,17,90,73,53,30.45,30.19,7,1,13,0.00
2013-2-23,30,28,25,29,26,20,98,90,75,30.33,29.89,2,1,8,0.00
2013-2-24,32,31,29,31,30,28,99,97,94,29.96,29.72,2,0,7,0.05
2013-2-25,33,30,28,31,29,27,97,94,90,30.24,29.86,3,1,7,0.01
2013-2-26,39,32,29,33,30,27,97,92,78,30.34,30.10,3,0,8,0.01
2013-2-27,33,31,28,33,30,27,100,98,92,30.11,29.60,5,2,14,0.01
2013-2-28,37,32,27,37,32,27,100,99,97,29.64,29.52,2,0,5,0.14
2013-3-1,34,32,29,34,29,26,98,88,77,29.71,29.52,6,3,12,0.03
2013-3-2,33,29,25,27,26,22,92,85,72,29.72,29.60,8,3,17,0.00
2013-3-3,32,27,22,27,24,20,93,88,81,29.70,29.55,6,2,14,0.00
2013-3-4,30,26,22,25,22,19,90,84,75,29.85,29.57,8,5,20,0.00
2013-3-5,40,31,24,31,26,20,91,81,62,30.10,29.76,6,2,14,0.01
2013-3-6,34,31,28,32,28,24,97,89,78,30.19,30.02,7,2,23,0.01
2013-3-7,33,29,26,30,26,23,96,89,80,30.18,30.03,4,2,12,0.01
2013-3-8,38,31,26,27,25,22,97,80,58,30.27,29.98,6,2,13,0.03
2013-3-9,52,37,27,28,21,14,82,56,22,30.34,30.18,4,1,10,0.03
2013-3-10,51,37,28,31,27,21,89,69,43,30.39,30.21,3,1,8,0.03
2013-3-11,48,39,30,37,31,27,95,75,44,30.23,30.08,4,1,10,0.00
2013-3-12,49,42,37,49,41,36,100,97,84,30.08,29.67,6,1,15,1.14
2013-3-13,41,36,31,39,29,21,97,78,50,29.80,29.69,9,3,18,0.61
2013-3-14,32,25,15,25,16,7,86,70,55,29.85,29.64,9,4,20,0.00
2013-3-15,33,22,12,27,13,4,94,70,39,29.87,29.54,10,4,20,0.00
2013-3-16,31,24,18,20,14,9,80,64,39,29.86,29.63,8,2,15,0.00
2013-3-17,28,21,15,15,8,1,85,59,36,30.39,29.82,9,4,21,0.00
2013-3-18,34,22,11,18,3,-1,69,46,29,30.50,30.20,3,1,9,0.00
2013-3-19,30,26,21,29,25,20,98,96,77,30.29,29.70,5,2,15,0.00
2013-3-20,32,25,21,24,21,16,97,83,64,29.84,29.67,12,4,27,0.00
2013-3-21,37,27,21,18,15,11,82,61,35,29.84,29.60,8,3,16,0.09
2013-3-22,35,27,19,24,18,15,88,71,50,29.79,29.62,7,3,19,0.01
2013-3-23,36,29,22,23,20,17,87,71,51,29.85,29.64,12,6,25,0.01
2013-3-24,39,32,27,24,23,21,79,70,55,29.91,29.68,9,4,21,0.01
2013-3-25,39,32,23,30,25,20,90,76,61,29.81,29.51,3,1,8,0.00
2013-3-26,44,35,30,29,24,20,93,67,42,29.81,29.55,7,2,17,0.00
2013-3-27,45,37,30,32,25,21,93,63,46,29.91,29.73,9,3,21,0.00
2013-3-28,44,38,32,34,32,30,97,80,59,30.06,29.86,5,1,13,0.02
2013-3-29,47,40,36,35,32,31,85,75,58,30.07,29.98,6,2,12,0.02
2013-3-30,48,39,32,32,23,16,84,57,27,30.11,30.00,6,2,15,0.00
2013-3-31,53,40,30,37,22,-100,97,52,30,30.11,29.73,6,1,14,0.16
2013-4-1,51,37,27,42,32,12,99,82,42,29.75,29.48,12,4,26,0.69
2013-4-2,31,26,22,20,13,10,75,57,45,29.90,29.70,13,6,28,0.01
2013-4-3,38,29,22,19,11,6,80,50,26,30.13,29.81,13,8,27,0.00
2013-4-4,51,37,25,22,16,10,71,45,22,30.29,29.93,7,3,18,0.00
2013-4-5,50,41,31,28,23,20,72,51,31,29.95,29.67,9,5,23,0.00
2013-4-6,39,29,21,22,10,4,71,46,23,30.34,29.86,12,5,22,0.00
2013-4-7,55,40,28,38,21,7,80,46,32,30.33,29.91,7,2,17,0.00
2013-4-8,58,47,40,40,35,30,91,66,36,30.09,29.91,8,3,18,0.00
2013-4-9,58,47,39,48,41,34,99,81,55,30.05,29.86,9,2,22,0.20
2013-4-10,53,45,41,47,43,39,100,93,80,29.98,29.85,3,0,8,0.64
2013-4-11,42,38,34,42,32,23,99,79,60,30.14,29.85,4,1,11,0.32
2013-4-12,35,30,27,31,28,23,99,91,61,30.16,29.80,4,2,17,0.04
2013-4-13,49,38,30,38,34,30,99,86,56,29.93,29.75,5,1,12,0.51
2013-4-14,45,40,35,35,32,27,89,74,50,30.19,29.88,7,3,16,0.01
2013-4-15,61,44,31,36,32,27,89,66,37,30.37,30.19,3,1,11,0.00
2013-4-16,61,49,37,52,42,31,96,77,55,30.34,29.99,10,3,23,0.08
2013-4-17,57,48,38,52,34,27,97,61,35,30.31,30.01,8,4,19,0.07
2013-4-18,59,48,31,43,31,24,89,53,40,30.40,30.11,6,2,12,0.00
2013-4-19,71,61,50,62,56,44,95,82,65,30.11,29.57,10,4,23,0.18
2013-4-20,59,44,34,57,34,21,98,71,40,30.18,29.61,10,6,21,0.46
2013-4-21,48,36,29,22,18,14,66,50,29,30.67,30.18,8,4,18,0.01
2013-4-22,53,40,30,30,23,17,89,53,28,30.76,30.54,4,1,12,0.00
2013-4-23,38,34,30,37,32,28,99,93,87,30.54,30.14,2,1,9,0.00
2013-4-24,76,54,37,49,42,26,100,70,18,30.18,29.73,7,2,19,0.00
2013-4-25,56,50,39,33,26,21,56,41,28,30.27,30.08,7,3,15,0.01
2013-4-26,55,46,36,37,30,23,75,54,39,30.42,30.26,5,1,10,0.00
2013-4-27,62,50,37,37,31,24,86,54,25,30.42,30.27,4,1,8,0.00
2013-4-28,72,54,37,40,35,-100,84,55,29,30.32,30.16,4,1,9,0.00
2013-4-29,67,54,41,45,38,34,83,57,36,30.23,30.15,7,2,15,0.00
2013-4-30,73,59,49,37,32,25,51,36,26,30.34,30.22,4,1,10,0.00
2013-5-1,76,58,42,36,30,27,62,38,17,30.44,30.34,3,1,10,0.00
2013-5-2,79,58,45,45,38,27,83,51,24,30.47,30.33,4,1,14,0.00
2013-5-3,68,52,39,45,40,32,87,64,42,30.51,30.37,3,1,11,0.00
2013-5-4,73,56,43,48,39,27,94,60,20,30.36,30.22,4,1,10,0.00
2013-5-5,72,53,34,39,35,31,89,56,23,30.29,30.19,3,1,8,0.00
2013-5-6,77,57,37,44,37,30,93,55,19,30.24,30.10,3,1,9,0.00
2013-5-7,82,65,46,56,47,39,97,58,23,30.16,30.06,3,1,11,0.00
2013-5-8,70,61,53,63,57,51,99,87,57,30.22,30.03,3,1,11,0.36
2013-5-9,68,59,55,60,57,54,100,93,71,30.06,29.87,3,0,9,0.64
2013-5-10,74,62,50,60,52,-100,100,78,49,29.98,29.89,4,1,10,0.44
2013-5-11,67,63,59,62,58,54,95,84,63,29.90,29.65,8,3,19,0.20
2013-5-12,61,53,44,58,43,-100,98,71,39,29.78,29.58,8,3,19,0.27
2013-5-13,48,42,38,31,29,27,73,60,46,30.06,29.78,8,4,21,0.00
2013-5-14,53,44,37,34,30,27,79,59,37,30.07,29.97,7,3,16,0.00
2013-5-15,62,47,33,51,37,28,96,72,32,30.06,29.64,8,1,21,0.11
2013-5-16,73,56,51,52,22,-100,91,53,25,29.85,29.63,12,5,30,0.04
2013-5-17,63,51,44,42,34,-100,85,63,37,30.23,29.83,9,3,20,0.00
2013-5-18,73,56,40,47,40,33,91,60,29,30.31,30.22,4,1,10,0.00
2013-5-19,67,53,42,55,49,41,99,88,63,30.33,30.18,3,0,7,0.16
2013-5-20,73,62,53,63,58,52,99,87,67,30.18,29.95,9,2,20,0.17
2013-5-21,80,63,49,68,59,48,99,88,64,30.06,29.85,4,1,16,0.73
2013-5-22,63,55,48,62,54,47,100,98,90,29.98,29.83,5,1,12,1.55
2013-5-23,76,62,50,67,59,50,100,92,72,29.90,29.77,7,2,20,0.37
2013-5-24,65,55,43,63,54,42,100,95,88,29.90,29.63,7,2,18,0.35
2013-5-25,43,40,33,42,39,32,99,98,95,29.89,29.78,8,3,18,0.85
2013-5-26,49,42,33,41,37,33,99,85,69,30.09,29.74,9,5,21,0.16
2013-5-27,65,53,41,41,38,33,86,60,33,30.19,30.05,8,4,17,0.01
2013-5-28,73,57,40,48,42,35,86,60,34,30.25,30.15,3,1,8,0.00
2013-5-29,61,55,49,59,53,43,100,93,68,30.17,29.99,2,0,7,0.21
2013-5-30,83,73,57,66,64,57,100,75,51,30.12,30.01,9,4,22,0.06
2013-5-31,89,79,68,68,63,55,82,60,32,30.14,29.91,7,3,14,0.00
2013-6-1,89,81,74,70,65,62,75,60,42,30.01,29.80,7,3,18,0.00
2013-6-2,88,75,65,71,66,-100,98,78,52,29.89,29.65,8,3,19,1.10
2013-6-3,74,66,55,65,57,46,97,74,41,29.85,29.74,7,3,19,0.27
2013-6-4,65,55,46,47,43,38,77,64,47,30.11,29.83,7,4,20,0.00
2013-6-5,72,59,48,47,43,39,85,58,35,30.21,30.09,6,2,12,0.00
2013-6-6,71,59,49,56,47,38,94,65,46,30.20,30.09,3,1,10,0.02
2013-6-7,54,50,48,52,49,47,99,97,89,30.11,29.88,4,2,11,1.03
2013-6-8,66,57,49,60,55,49,100,93,80,30.03,29.72,6,2,15,1.00
2013-6-9,73,64,56,57,55,52,98,74,50,30.20,30.03,8,2,15,0.02
2013-6-10,70,61,54,60,56,51,99,83,64,30.23,30.02,3,1,10,0.17
2013-6-11,57,54,51,56,54,51,100,99,94,30.02,29.59,4,1,12,1.21
2013-6-12,61,56,52,55,53,50,100,91,77,29.86,29.58,8,3,17,0.52
2013-6-13,64,55,50,57,52,49,99,90,66,29.85,29.72,2,0,5,0.27
2013-6-14,73,60,49,57,51,45,99,75,38,29.83,29.69,7,2,14,0.19
2013-6-15,72,64,54,52,45,42,71,53,36,29.96,29.82,7,3,15,0.00
2013-6-16,72,64,58,60,54,45,91,71,50,29.96,29.69,6,2,18,0.00
2013-6-17,75,65,57,63,59,54,98,82,54,29.93,29.77,15,3,25,0.30
2013-6-18,60,56,51,58,54,50,98,94,89,30.03,29.88,7,0,13,0.25
2013-6-19,69,58,48,52,47,38,99,69,36,30.18,29.96,5,2,12,0.02
2013-6-20,76,59,47,53,47,43,92,66,35,30.28,30.18,4,1,11,0.00
2013-6-22,81,76,67,67,64,61,93,67,54,30.22,30.08,6,1,16,0.01
2013-6-23,88,73,64,73,67,62,95,82,56,30.17,29.96,8,2,15,0.39
2013-6-24,85,75,71,71,68,64,87,79,59,30.04,29.88,10,6,22,0.06
2013-6-25,85,73,67,71,67,64,97,81,54,29.99,29.79,8,3,19,0.49
2013-6-26,74,68,64,70,67,63,100,95,84,29.88,29.71,6,1,13,1.72
2013-6-27,74,66,62,70,65,62,100,96,85,29.88,29.74,3,1,11,0.02
2013-6-28,71,62,55,68,62,55,100,98,87,29.78,29.46,4,1,12,1.98
2013-6-29,83,71,63,69,66,63,100,85,55,29.73,29.49,6,1,15,0.44
2013-6-30,82,72,66,72,67,64,99,86,64,29.97,29.67,5,1,12,0.32
2013-7-1,77,70,67,72,69,67,100,95,80,30.10,29.90,2,0,7,0.30
2013-7-2,79,69,60,73,67,60,100,93,79,30.22,30.02,5,2,13,0.63
2013-7-3,85,73,60,73,68,60,100,85,64,30.23,30.12,8,2,17,0.75
2013-7-4,89,81,73,75,72,69,91,75,57,30.24,30.03,8,3,17,0.01
2013-7-5,89,80,74,74,72,69,90,77,54,30.20,30.00,7,3,15,0.00
2013-7-6,83,77,72,71,69,65,89,76,56,30.13,29.97,7,4,16,0.00
2013-7-7,88,76,69,75,69,61,97,79,59,30.08,29.89,6,1,11,0.48
2013-7-8,82,72,66,72,69,64,100,92,69,30.10,29.90,4,1,10,0.48
2013-7-9,78,68,63,71,66,62,100,93,77,30.14,30.03,3,1,8,0.00
2013-7-10,77,68,64,73,65,-100,100,95,85,30.09,29.77,7,2,18,0.67
2013-7-11,79,73,63,71,67,60,97,84,62,30.02,29.74,7,3,15,0.13
2013-7-12,80,68,59,66,60,57,94,79,57,30.23,29.97,2,0,7,0.00
2013-7-13,78,68,58,70,64,55,99,87,71,30.35,30.21,4,0,10,0.08
2013-7-14,84,76,68,72,70,67,100,83,65,30.36,30.20,5,1,10,0.02
2013-7-15,87,77,67,72,68,65,98,76,48,30.28,30.10,6,1,13,0.00
2013-7-16,86,78,72,70,68,65,83,71,57,30.24,30.11,6,2,11,0.00
2013-7-17,90,77,68,73,68,65,93,75,51,30.24,29.96,7,2,16,0.00
2013-7-18,89,77,70,73,71,69,98,81,54,30.08,29.95,8,2,13,0.45
2013-7-19,91,82,69,75,72,69,100,73,52,30.00,29.68,10,4,20,0.45
2013-7-20,83,75,70,72,65,-100,91,72,60,29.85,29.65,13,5,28,0.16
2013-7-21,79,70,62,66,62,58,96,76,53,30.03,29.78,6,2,13,0.07
2013-7-22,75,65,60,70,64,58,100,95,83,30.07,29.90,3,0,9,0.73
2013-7-23,77,66,62,70,65,62,100,96,77,29.91,29.54,3,1,10,1.81
2013-7-24,73,68,52,67,62,47,93,80,66,30.03,29.58,7,4,14,0.03
2013-7-25,71,59,48,60,53,45,90,81,61,30.14,29.99,4,1,7,0.00
2013-7-26,70,63,59,63,60,57,98,89,76,30.11,29.98,5,1,9,0.09
2013-7-27,81,70,57,68,60,55,96,71,47,30.09,29.97,7,2,18,0.01
2013-7-28,80,69,59,70,64,58,100,87,63,30.04,29.94,7,1,13,0.03
2013-7-29,81,70,63,70,64,56,100,84,52,30.10,29.96,4,1,11,0.04
2013-7-30,74,66,60,59,56,53,80,69,49,30.15,30.04,5,2,10,0.03
2013-7-31,79,69,60,64,58,55,87,71,49,30.17,30.02,4,1,10,0.00
2013-8-1,78,64,57,65,61,55,97,88,63,30.08,29.83,6,1,14,0.24
2013-8-2,76,68,62,64,60,52,99,79,47,29.88,29.77,6,2,14,0.12
2013-8-3,74,67,58,60,57,53,98,71,51,29.89,29.76,7,3,16,0.00
2013-8-4,69,63,57,61,55,51,90,76,60,29.93,29.80,7,3,18,0.03
2013-8-5,68,59,53,52,47,38,90,66,33,30.08,29.90,9,3,18,0.02
2013-8-6,77,61,48,57,50,45,93,70,43,30.16,30.06,4,0,6,0.00
2013-8-7,79,67,57,62,58,54,97,75,48,30.20,30.06,5,1,14,0.00
2013-8-8,82,71,63,71,66,59,94,84,68,30.11,29.97,6,2,17,0.00
2013-8-9,76,71,69,72,69,67,97,92,80,30.03,29.75,6,2,14,0.38
2013-8-10,75,68,59,68,56,45,95,67,37,30.06,29.77,9,3,21,0.02
2013-8-11,74,64,54,56,52,49,86,66,46,30.11,30.00,5,2,12,0.00
2013-8-12,76,66,60,60,55,51,82,67,52,30.05,29.90,5,2,13,0.00
2013-8-13,70,64,60,68,60,-100,98,90,70,29.96,29.68,4,1,9,0.74
2013-8-14,66,58,53,64,50,-100,98,79,63,29.97,29.67,9,5,21,0.11
2013-8-15,70,57,53,54,39,-100,87,67,51,30.13,29.95,7,4,15,0.00
2013-8-16,74,64,57,58,50,-100,79,66,53,30.23,30.09,5,2,11,0.00
2013-8-17,76,65,55,62,56,52,95,74,49,30.32,30.20,5,1,10,0.00
2013-8-18,74,65,56,63,56,-100,97,78,55,30.31,30.11,6,1,11,0.00
2013-8-19,78,66,60,62,48,-100,91,72,54,30.11,29.95,5,2,13,0.00
2013-8-20,81,71,62,63,59,-100,87,70,50,30.14,29.98,5,2,11,0.00
2013-8-21,83,74,64,68,63,58,85,69,56,30.19,30.04,6,2,12,0.00
2013-8-22,84,76,67,66,64,60,95,67,46,30.07,29.80,6,3,13,0.03
2013-8-23,73,65,56,65,57,49,95,77,48,30.19,29.81,7,2,13,0.03
2013-8-24,76,61,48,55,48,43,94,67,33,30.36,30.19,4,1,7,0.00
2013-8-25,77,64,49,58,51,-100,95,67,43,30.39,30.18,6,2,14,0.00
2013-8-26,74,68,61,67,63,56,92,83,66,30.20,29.88,10,4,22,0.14
2013-8-27,81,71,65,69,67,64,98,86,59,29.94,29.84,5,1,11,0.04
2013-8-28,83,75,62,72,68,61,97,81,67,30.04,29.84,6,1,13,0.78
2013-8-29,68,63,60,65,62,60,100,97,89,30.12,29.94,2,0,8,0.82
2013-8-30,81,70,60,67,64,60,99,83,61,30.05,29.80,9,2,18,0.01
2013-8-31,78,72,67,73,68,63,94,86,75,29.86,29.73,9,3,17,0.02
2013-9-1,79,71,68,74,67,-100,99,89,73,29.92,29.76,8,2,16,0.17
2013-9-2,76,69,66,73,69,65,100,97,90,29.91,29.69,4,0,11,0.80
2013-9-3,71,65,59,65,61,56,100,89,70,29.85,29.69,5,2,13,0.04
2013-9-4,74,65,58,59,56,52,94,75,52,29.94,29.79,7,4,19,0.00
2013-9-5,64,58,47,57,48,39,93,70,42,30.17,29.84,7,2,13,0.00
2013-9-6,66,53,42,46,41,38,88,65,45,30.25,30.09,7,2,15,0.00
2013-9-7,70,62,56,53,49,42,76,61,45,30.09,29.86,9,4,20,0.00
2013-9-8,62,57,48,57,45,-100,91,67,53,30.11,29.75,10,5,23,0.00
2013-9-9,67,56,44,51,44,39,85,66,42,30.23,30.11,9,2,24,0.00
2013-9-10,72,64,55,68,61,50,100,91,72,30.13,30.02,7,1,19,0.12
2013-9-11,89,79,66,75,71,63,100,79,58,30.09,29.91,7,3,19,0.19
2013-9-12,78,69,64,73,66,63,100,91,73,29.98,29.66,6,1,17,0.93
2013-9-13,65,61,53,65,60,51,100,95,88,29.82,29.59,6,2,15,0.48
2013-9-14,58,53,50,52,50,48,97,89,78,30.07,29.80,5,2,13,0.01
2013-9-15,65,53,44,54,47,-100,99,83,64,30.16,30.04,6,2,15,0.00
2013-9-16,58,52,40,53,47,35,95,81,67,30.28,30.01,7,4,15,0.10
2013-9-17,62,48,38,45,39,34,90,73,48,30.46,30.28,3,1,8,0.04
2013-9-18,50,44,41,44,42,40,96,92,80,30.33,30.29,1,0,4,0.00
2013-9-19,78,62,47,56,50,44,96,68,40,30.16,30.05,2,1,7,0.00
2013-9-20,78,62,50,61,55,49,97,80,50,30.14,29.99,2,0,5,0.00
2013-9-21,71,62,50,62,56,48,98,82,50,30.03,29.70,7,1,17,0.00
2013-9-22,66,56,47,63,51,-100,97,85,68,29.86,29.58,7,4,17,0.58
2013-9-23,52,46,42,43,40,38,88,80,67,30.03,29.85,8,5,19,0.01
2013-9-24,60,50,43,44,41,38,83,72,48,30.02,29.85,8,4,17,0.00
2013-9-25,62,54,48,52,47,43,86,78,67,30.01,29.90,6,2,12,0.00
2013-9-26,64,52,43,51,47,41,95,81,60,30.16,30.01,3,1,9,0.00
2013-9-27,67,55,50,54,50,48,96,85,59,30.29,30.16,3,0,6,0.00
2013-9-28,72,57,47,57,51,46,99,82,53,30.37,30.28,3,0,5,0.00
2013-9-29,71,56,47,55,48,-100,100,80,53,30.29,30.11,2,0,6,0.01
2013-9-30,71,54,43,54,48,42,99,83,49,30.14,29.99,3,0,5,0.01
2013-10-1,65,61,50,58,56,48,97,83,76,30.00,29.90,2,0,8,0.01
2013-10-2,73,66,60,60,57,52,83,73,59,29.98,29.85,8,4,18,0.01
2013-10-3,71,62,53,54,49,46,82,64,44,30.12,29.95,5,2,13,0.00
2013-10-4,62,56,48,57,52,46,95,87,76,30.12,30.05,1,0,3,0.01
2013-10-5,62,58,55,55,53,48,97,84,70,30.14,30.08,2,0,4,0.01
2013-10-6,57,50,45,55,48,43,100,95,73,30.22,30.12,5,1,10,0.34
2013-10-7,67,55,48,66,54,47,100,98,84,30.14,29.73,5,1,19,0.51
2013-10-8,59,51,41,48,41,36,89,70,43,30.39,29.91,8,3,18,0.40
2013-10-9,62,46,35,44,39,33,97,78,48,30.50,30.37,2,0,6,0.00
2013-10-10,61,49,39,51,42,36,93,78,58,30.38,30.21,2,0,4,0.00
2013-10-11,67,54,45,50,43,33,89,67,44,30.22,30.15,2,0,5,0.00
2013-10-12,52,50,47,51,48,43,100,94,73,30.41,30.20,2,0,7,0.02
2013-10-13,59,48,41,50,44,-100,100,90,70,30.47,30.38,3,0,7,0.02
2013-10-14,65,52,41,55,48,41,100,87,61,30.40,30.24,3,0,6,0.01
2013-10-15,60,57,52,55,53,50,96,89,81,30.28,30.16,3,1,8,0.00
2013-10-16,57,53,49,53,50,46,97,89,80,30.17,29.90,3,1,8,0.00
2013-10-17,66,58,51,54,50,46,96,77,53,29.89,29.72,6,2,15,0.00
2013-10-18,57,53,49,54,47,37,100,80,61,29.88,29.57,10,5,21,0.12
2013-10-19,61,54,46,46,42,38,81,63,49,29.93,29.71,9,3,18,0.01
2013-10-20,52,48,42,47,38,-100,92,70,51,29.99,29.66,8,5,19,0.00
2013-10-21,61,51,40,43,39,35,92,65,49,30.08,29.95,5,2,16,0.00
2013-10-22,55,49,42,49,42,32,88,77,61,29.95,29.71,8,3,18,0.01
2013-10-23,50,43,36,36,32,28,82,66,46,29.77,29.58,5,2,11,0.01
2013-10-24,43,38,32,37,32,28,96,77,61,29.88,29.63,9,4,21,0.01
2013-10-25,42,38,35,33,28,26,86,67,54,30.13,29.84,8,4,17,0.00
2013-10-26,46,41,35,33,30,26,88,65,47,30.14,29.82,8,3,18,0.00
2013-10-27,48,42,37,36,30,-100,78,66,53,30.01,29.75,8,3,17,0.00
2013-10-28,50,39,31,37,29,-100,81,70,58,30.37,30.01,12,4,22,0.00
2013-10-29,43,32,25,24,19,15,83,61,32,30.46,30.32,3,1,8,0.00
2013-10-30,44,36,31,36,29,17,94,75,56,30.36,30.16,5,1,14,0.00
2013-10-31,59,46,36,57,44,35,98,93,78,30.25,29.72,10,2,25,0.24
2013-11-1,65,60,53,61,54,43,95,84,60,29.72,29.37,13,6,29,0.67
2013-11-2,57,50,39,45,42,35,95,77,58,29.78,29.59,7,2,17,0.09
2013-11-3,39,32,26,35,21,-100,87,66,45,30.45,29.78,7,4,15,0.09
2013-11-4,38,28,22,19,16,15,77,62,40,30.73,30.40,3,1,8,0.00
2013-11-5,47,35,24,34,26,16,88,69,53,30.73,30.45,3,0,10,0.00
2013-11-6,57,46,36,46,40,33,96,81,63,30.51,29.96,10,2,22,0.00
2013-11-7,55,48,34,53,45,30,97,90,82,29.97,29.69,8,4,18,0.14
2013-11-8,39,33,29,33,26,22,87,75,66,30.06,29.78,8,4,19,0.02
2013-11-9,39,34,29,29,22,-100,73,65,52,30.19,29.97,7,3,16,0.00
2013-11-10,43,37,31,39,34,30,99,90,78,29.97,29.70,9,3,20,0.07
2013-11-11,46,38,32,31,28,24,84,68,41,30.08,29.82,10,4,20,0.01
2013-11-12,40,28,23,34,21,14,94,73,60,30.20,29.83,9,5,18,0.00
2013-11-13,28,23,18,20,14,10,82,67,48,30.32,30.03,9,5,18,0.00
2013-11-14,43,36,28,29,24,17,70,61,44,30.11,29.98,12,6,24,0.00
2013-11-15,54,48,42,23,19,15,43,31,23,30.19,30.08,7,1,13,0.00
2013-11-16,56,46,40,32,25,-100,68,46,35,30.30,30.16,4,0,8,0.00
2013-11-17,44,41,38,44,37,29,99,87,64,30.30,29.81,3,1,12,0.11
2013-11-18,58,49,42,58,42,31,100,79,50,29.81,29.48,12,3,25,0.52
2013-11-19,42,31,26,32,21,16,83,65,57,30.26,29.62,13,7,31,0.04
2013-11-20,34,27,21,17,15,12,80,61,42,30.66,30.25,8,3,23,0.00
2013-11-21,44,32,19,31,15,4,76,54,20,30.67,30.31,7,1,15,0.00
2013-11-22,44,39,36,42,37,31,100,93,72,30.30,29.78,9,2,19,0.19
2013-11-23,43,32,22,42,23,-100,95,73,53,29.92,29.70,9,6,23,0.01
2013-11-24,22,16,12,19,5,-3,93,62,44,30.19,29.72,15,8,36,0.00
2013-11-25,27,18,8,14,4,-3,65,56,39,30.39,30.09,9,3,18,0.00
2013-11-26,33,29,25,29,23,13,98,80,54,30.32,30.00,5,1,15,0.00
2013-11-27,47,38,29,47,37,28,100,98,91,30.06,29.27,8,3,19,1.03
2013-11-28,31,22,15,28,14,6,95,71,51,30.42,29.39,11,6,25,0.03
2013-11-29,24,16,12,10,8,6,85,68,47,30.76,30.32,6,2,14,0.00
2013-11-30,28,18,7,17,9,-100,85,71,50,30.81,30.33,2,0,7,0.00
2013-12-1,37,31,24,32,27,16,98,87,72,30.41,29.99,3,0,15,0.00
2013-12-2,37,34,32,37,34,32,99,98,97,30.06,29.87,0,0,1,0.00
2013-12-3,40,33,29,37,32,29,99,96,81,29.97,29.84,3,1,9,0.00
2013-12-4,38,32,27,30,26,22,96,80,63,30.18,29.91,6,2,14,0.00
2013-12-5,44,35,29,44,33,26,100,93,81,30.21,29.89,5,1,13,0.01
2013-12-6,52,40,30,51,37,27,99,89,73,30.13,29.84,5,3,14,0.18
2013-12-7,30,27,23,29,21,-100,98,81,61,30.44,30.04,9,3,19,0.02
2013-12-8,24,22,19,18,15,13,83,73,64,30.58,30.36,4,1,10,0.00
2013-12-9,32,24,19,32,22,14,99,91,70,30.50,29.81,8,2,13,0.00
2013-12-10,32,27,18,30,21,9,94,80,56,29.93,29.71,8,4,17,0.00
2013-12-11,26,20,15,18,14,10,92,76,54,30.15,29.88,8,4,18,0.00
2013-12-12,17,13,10,14,5,-2,91,71,43,30.25,29.90,10,4,19,0.00
2013-12-13,19,12,2,15,8,-4,91,81,69,30.35,29.82,7,3,16,0.00
2013-12-14,10,4,-2,7,-4,-100,91,75,53,30.63,30.08,4,1,16,0.00
2013-12-15,22,18,10,21,16,8,96,94,91,30.17,29.41,9,3,21,0.00
2013-12-16,20,16,3,19,8,-3,94,73,50,30.18,29.61,10,5,26,0.00
2013-12-17,12,4,-5,10,0,-9,93,85,71,30.29,29.91,4,0,10,0.00
2013-12-18,26,18,9,21,15,7,94,88,79,30.06,29.83,7,2,17,0.00
2013-12-19,35,30,24,29,23,20,87,78,67,30.09,29.87,8,4,19,0.00
2013-12-20,44,38,34,39,32,29,88,80,62,30.11,29.85,7,2,13,0.17
2013-12-21,53,47,44,50,41,-100,100,86,77,29.90,29.82,4,1,11,0.16
2013-12-22,48,37,32,48,37,32,100,99,95,29.94,29.68,5,1,13,0.17
2013-12-23,36,32,30,36,32,28,100,99,88,30.13,29.92,6,1,13,0.01
2013-12-24,31,24,15,28,18,8,87,77,62,30.19,29.99,10,4,16,0.01
2013-12-25,17,10,3,9,3,-3,83,72,57,30.55,30.12,8,3,16,0.00
2013-12-26,26,20,12,25,17,6,96,88,74,30.49,30.01,4,2,10,0.00
2013-12-27,27,25,22,22,20,18,92,83,70,30.24,30.09,8,3,18,0.00
2013-12-28,38,33,26,32,26,-100,85,78,70,30.11,29.91,10,4,22,0.04
2013-12-29,38,34,32,33,31,29,99,89,78,29.98,29.52,1,0,4,0.04
2013-12-30,35,25,5,34,21,-1,99,85,60,30.16,29.52,11,3,23,0.05
2013-12-31,16,8,0,13,3,-9,92,79,64,30.19,29.91,8,1,17,0.02
2014-1-1,16,12,9,11,7,5,88,80,69,30.40,30.03,8,3,17,0.00
2014-1-2,10,4,-3,7,1,-6,89,87,84,30.38,29.80,1,0,9,0.00